Aeroporto :
LOGIN :

Iscrizione | Disclaimer

   EN    FR    IT 

 










Sommario :    VFR   VFR Marginale   IFR   IFR Intensivo   IFR Molto Intensivo
Visibilità : 
Base nubi : 
>= 8 km
>= 3000ft
5 / 8 km
1000 / 3000 ft
1500m / 5 km
500 / 1000 ft
800 / 1500m
200 / 500 ft
< 800m
< 200 ft
Simboli :   Temporali  Nebbia  Neve Forte  Precipitazioni Forti  Vento > 20 kt
SIGMETs :   Varie  Temporali  Ghiacco  Turbolenza  Onda orograficha  Ceneri Vulcaniche






- Altitudine del aeroporto : 1027 ft
- Codice IATA : GEV


ESNG - Gällivare

ULTIMO METAR :
  • 240250Z AUTO 31005KT 9999 NCD M10/M11 Q1004

METARs OBSOLETI :
  • 240220Z AUTO 27003KT 220V320 9999 NCD M06/M07 Q1003
  • 240150Z AUTO 33007KT 9999 NCD M06/M07 Q1003
  • 240120Z AUTO 26005KT 9999 NCD M07/M09 Q1003
  • 240050Z AUTO 28007KT 9999 NCD M05/M06 Q1002
  • 240020Z AUTO 32006KT 9999 NCD M05/M06 Q1002

Previsioni scadute.



MetMap, La meteo Aeronautica in un colpo d'occhio ! - Copyright ORBIFLY Dicembre 2007 - Disclaimer

ORBIFLY MET'MAP TEAM :

Programmazione e sviluppo : Alexandra Zaïnal
Concezione : Baudouin d'Aumeries
Aiuto per la programmazione : Marc-Olivier Méhu
Supporto tecnico e logistico : Manuel Goepfert
Aiuto per la traduzione : Arnaldo La Scala

Contatto : metmap@orbifly.com




FONTI E CREDITI :

   NOAA